Theta_e
357 368 367 367 368 368 368 366 364 363 362 362 361 361 363 362 363 362 363 363 363 364 362 362 361 361 361 361 358 354 353 354 353 351 350 350 350 350 352 352 353 353 348
362 366 365 366 368 368 367 366 364 362 362 362 362 362 362 362 363 363 362 364 364 363 362 361 360 359 358 356 353 352 351 351 351 350 350 351 353 354 354 354 355 357 356
362 369 364 366 367 368 366 365 363 362 361 362 362 362 362 363 364 363 363 364 364 361 361 360 359 358 356 353 351 349 350 350 350 351 351 352 353 357 356 356 357 358 357
361 370 366 366 367 367 366 364 363 362 362 362 362 363 363 363 363 362 363 364 363 361 359 358 357 354 352 349 348 348 348 349 349 351 344 349 347 360 357 355 354 355 360
363 370 367 366 366 366 366 364 362 362 362 362 363 363 363 363 362 361 362 364 362 360 358 357 356 354 352 349 347 347 347 349 351 348 346 349 354 355 355 354 357 358 358
364 367 361 364 365 366 365 365 363 363 362 362 363 363 363 362 361 361 362 363 361 359 358 356 354 351 348 346 345 344 344 345 347 339 343 352 352 360 356 353 355 358 359
362 365 365 363 364 365 364 365 364 363 363 362 363 363 363 362 361 362 363 363 361 359 358 356 353 348 346 344 343 344 345 346 341 343 345 349 350 357 354 354 354 356 360
360 365 367 363 363 363 364 363 363 362 362 362 362 362 362 361 361 362 362 362 362 359 357 355 348 346 345 345 345 346 346 346 340 337 338 340 353 352 355 354 353 355 358
363 367 366 360 360 362 362 362 362 361 361 361 360 360 360 360 361 362 362 362 360 358 356 350 347 346 345 345 345 346 347 348 343 336 338 339 349 348 350 353 355 356 357
362 364 362 360 356 353 357 361 361 361 360 359 360 360 359 360 360 361 359 360 358 356 352 349 348 346 346 347 349 349 349 350 343 344 344 350 355 355 356 357 356 358 358
358 360 360 357 357 352 350 357 359 359 359 359 359 359 356 349 352 355 355 358 356 354 351 350 348 348 349 351 351 351 348 343 348 347 353 358 358 358 357 359 359 358 356
352 359 359 360 354 353 350 355 350 351 352 351 351 354 347 351 348 347 354 356 355 353 351 350 350 351 350 340 345 349 344 347 346 346 351 355 359 358 358 357 355 353 350
345 357 359 363 363 355 352 353 348 349 347 347 349 350 351 349 348 348 354 352 350 351 347 347 347 347 343 343 344 346 346 346 346 347 346 349 351 349 347 346 345 343 342
331 349 357 363 363 365 354 352 350 349 349 348 350 351 352 349 352 350 347 346 348 347 344 347 343 345 348 348 348 347 349 347 349 349 343 343 344 343 343 341 340 340 339
326 337 357 355 360 364 364 355 353 351 350 351 351 352 351 351 352 349 348 345 346 344 345 345 344 347 349 349 349 351 349 350 351 350 345 340 338 337 337 338 339 339 340
326 332 349 359 354 364 364 356 357 356 355 352 352 353 353 351 353 348 348 346 344 344 345 345 346 348 350 348 351 351 350 352 352 350 347 340 338 336 334 334 336 337 337
324 331 342 357 361 360 366 363 358 355 353 351 350 357 354 353 358 357 346 345 342 349 352 354 355 353 351 348 349 353 352 355 351 348 345 343 339 334 333 333 334 334 331
323 329 337 341 358 362 363 362 359 357 354 352 350 351 354 352 352 353 345 344 344 352 351 350 351 347 347 348 353 351 353 355 352 347 342 339 339 337 332 333 330 328 326
323 329 334 343 350 361 364 366 364 365 357 353 352 352 355 352 349 351 342 343 361 350 350 349 349 350 348 348 347 348 348 347 347 341 339 338 338 336 335 329 328 327 323
323 327 339 341 352 363 363 363 365 362 359 355 352 352 355 352 349 352 342 352 355 350 348 349 353 350 351 349 345 344 346 344 341 338 337 336 336 335 333 330 329 328 324
324 327 332 341 354 356 361 358 358 357 356 353 353 355 354 351 351 353 343 353 357 353 352 355 351 351 348 347 342 342 342 342 340 338 337 335 334 332 327 327 327 326 326
325 329 334 338 348 350 353 360 361 360 356 353 353 355 354 349 349 349 352 355 360 349 355 354 354 350 345 340 337 334 329 335 336 339 337 334 332 329 325 327 327 327 326
322 329 331 339 347 348 350 361 358 361 351 352 350 350 351 348 352 357 359 358 359 356 349 355 353 348 342 337 336 329 323 321 322 331 333 328 333 325 325 325 325 325 326
319 321 329 336 347 350 356 356 354 349 343 348 349 350 349 350 353 357 361 358 360 352 355 350 348 346 343 335 333 331 331 327 317 315 323 325 326 325 332 322 323 325 324
320 320 328 336 342 350 352 354 354 353 354 352 350 355 351 353 356 353 357 356 355 350 348 344 342 339 333 330 326 324 325 322 325 319 312 315 319 321 321 321 322 322 324
319 320 322 331 340 345 349 352 353 351 349 344 351 347 342 343 355 357 354 352 351 345 340 336 334 332 330 328 323 322 318 317 315 315 312 314 314 317 319 321 321 319 319
Wind_Speed
8 17 14 13 11 11 13 16 16 15 14 15 15 15 13 12 13 14 14 12 11 10 11 10 9 9 8 7 6 5 4 4 3 2 1 1 1 2 1 2 6 2 4
13 16 13 13 13 13 14 14 16 15 14 15 15 14 13 12 12 13 14 13 11 12 11 9 9 8 7 6 5 4 3 2 1 1 3 6 6 5 3 3 6 9 7
9 13 13 12 13 13 13 14 15 16 14 15 15 14 13 13 13 12 12 12 12 11 11 9 8 7 6 5 4 3 1 0 1 4 6 9 14 12 7 4 6 8 8
3 15 14 11 13 13 13 13 14 15 14 14 15 15 14 13 13 12 12 11 11 11 10 8 8 7 5 4 3 2 1 1 3 6 8 12 4 18 12 7 6 9 9
7 13 14 13 13 14 13 13 13 14 13 14 14 15 14 13 13 12 12 11 11 10 9 8 7 6 5 3 1 1 2 3 5 9 11 13 4 12 8 5 8 11 10
9 12 20 12 14 14 13 15 14 14 14 14 14 14 13 12 11 11 11 10 10 10 9 8 7 5 4 2 1 1 3 5 8 11 10 9 5 10 8 2 6 10 12
9 17 17 14 13 15 14 14 16 15 14 14 14 14 13 12 11 10 11 10 11 9 8 7 6 4 3 2 2 3 5 8 10 11 11 7 11 7 3 1 6 10 14
9 19 17 15 12 14 14 12 14 15 15 15 14 14 13 12 12 11 10 9 9 9 7 5 4 3 2 2 3 5 6 8 11 12 11 10 2 7 1 3 7 12 13
14 16 15 16 13 14 14 13 13 14 14 14 14 14 14 13 13 12 10 9 8 7 5 4 3 2 2 4 6 7 8 10 11 10 12 6 12 6 4 6 10 12 12
9 9 10 16 16 15 14 14 14 14 13 14 13 14 13 12 11 11 10 8 7 6 5 4 3 4 5 7 7 9 10 12 13 13 10 7 10 9 9 10 12 11 11
2 9 7 15 16 16 16 14 14 15 15 14 14 13 12 11 11 12 6 14 9 7 6 6 6 6 7 11 13 13 11 9 15 9 9 13 11 10 10 11 11 8 9
3 10 4 4 14 17 14 15 14 13 11 11 12 13 11 10 10 11 12 10 7 6 7 8 9 10 9 10 10 14 8 12 5 8 8 17 15 11 10 10 12 13 12
9 4 9 8 7 11 12 11 9 8 9 9 13 13 11 8 8 7 8 7 7 10 8 10 10 9 11 5 6 5 6 8 5 3 11 15 12 9 9 10 11 12 12
4 12 7 10 12 8 6 11 12 10 10 9 11 13 8 6 8 7 6 9 8 8 9 7 5 3 4 5 7 8 7 5 6 7 10 16 10 9 10 10 11 11 10
6 6 14 7 10 11 5 8 11 11 11 11 12 13 9 9 8 9 7 6 7 7 6 6 5 3 4 6 8 6 7 6 7 6 4 13 8 7 9 10 10 11 10
10 8 9 15 10 14 10 10 9 9 11 10 11 12 12 9 8 8 7 7 5 5 6 3 5 3 5 6 4 4 6 6 8 6 7 6 10 9 7 8 10 10 10
10 10 10 14 16 13 15 9 9 11 11 11 10 11 12 10 9 8 8 7 7 5 3 2 3 6 6 3 3 2 4 5 5 5 7 7 7 8 8 9 8 9 9
13 12 12 12 15 18 15 11 10 10 11 10 10 11 13 12 10 9 7 7 7 6 7 7 6 5 3 3 2 5 2 2 4 5 5 5 6 7 7 8 8 5 3
11 11 12 13 15 17 16 11 12 9 11 10 10 10 13 12 11 9 8 8 5 6 6 5 3 4 4 4 6 4 4 4 4 4 3 5 6 5 7 10 5 5 3
14 11 11 11 14 15 12 11 9 7 10 10 10 10 14 11 12 9 8 7 7 8 7 5 3 3 5 6 7 6 4 4 4 3 3 6 5 5 8 7 7 5 6
13 11 10 12 12 10 10 10 10 11 11 10 10 11 14 12 12 10 7 6 8 7 3 5 4 5 5 3 5 8 7 7 4 3 4 4 7 6 10 5 5 7 5
14 11 11 12 12 11 10 9 10 11 11 11 11 11 14 14 14 11 10 10 9 6 5 5 2 5 1 4 6 7 5 6 7 7 3 4 5 6 9 10 9 5 7
16 12 11 11 13 13 15 9 10 10 9 7 12 12 13 15 14 12 9 8 7 5 8 4 3 1 4 3 5 6 6 4 6 7 4 2 3 5 4 7 7 8 8
16 15 13 11 11 12 14 10 15 10 11 11 12 12 12 14 14 12 9 8 6 5 8 5 3 2 1 1 2 3 3 6 5 4 6 6 4 7 5 6 7 8 7
17 15 11 10 10 12 11 14 13 14 11 10 11 14 13 12 13 14 12 10 8 6 7 7 7 6 5 3 5 2 3 5 2 3 8 9 9 8 8 6 4 5 9
15 15 14 11 10 12 13 15 16 16 15 12 13 12 12 12 10 12 11 9 8 10 9 8 9 9 6 4 3 3 4 3 4 5 8 9 9 10 8 6 8 9 9
Wind_Direction
104 125 122 118 128 139 143 147 142 144 147 143 142 141 141 140 138 133 127 116 118 120 120 113 110 106 99 97 92 70 55 56 51 51 41 81 129 113 66 304 295 7 53
92 134 129 128 136 140 144 149 144 144 148 145 144 142 142 146 143 138 130 123 124 119 114 108 108 109 105 97 88 78 71 65 46 266 250 226 206 187 212 271 301 315 338
115 139 153 135 143 139 146 153 146 144 151 148 144 144 147 147 141 136 131 129 125 117 114 115 110 102 91 87 89 87 83 99 278 273 266 253 190 179 189 237 285 299 307
122 144 165 141 142 137 149 148 142 141 149 149 146 147 149 146 143 137 131 127 124 119 118 118 115 107 102 98 102 132 165 276 267 276 246 238 280 166 175 197 257 276 278
132 142 147 145 140 141 148 140 140 140 147 151 147 147 147 147 144 141 139 131 130 127 126 125 118 120 125 124 128 346 327 306 300 272 258 278 316 117 152 196 250 259 265
158 151 130 138 141 141 149 142 144 143 149 153 148 149 145 144 141 141 140 140 140 138 135 134 134 136 135 130 203 287 300 302 287 252 247 267 286 125 148 198 289 295 294
163 118 142 135 145 142 148 151 144 146 150 151 150 147 144 142 143 146 146 148 146 146 147 147 140 137 144 177 251 290 295 290 277 277 273 262 281 119 116 320 295 283 283
165 134 134 138 148 145 145 151 146 150 149 154 151 149 145 148 149 150 152 152 152 154 156 150 140 146 175 257 270 278 282 287 287 267 267 287 275 135 136 284 280 279 287
68 140 149 163 160 144 139 147 148 149 150 151 151 148 150 152 152 151 152 148 147 153 154 157 159 171 227 253 270 280 284 282 283 282 283 267 82 53 347 302 285 282 283
115 140 163 166 172 176 159 147 147 150 146 148 148 147 149 147 150 149 143 151 156 158 163 173 190 217 245 262 266 265 268 273 258 261 255 44 48 16 336 312 293 284 286
121 118 259 166 175 188 165 154 148 150 148 144 145 147 152 182 177 159 173 145 166 173 180 195 218 238 257 252 239 238 244 255 253 236 56 38 25 357 330 317 322 297 310
192 147 232 174 184 193 162 153 173 162 170 177 175 171 192 180 189 183 135 147 166 187 204 216 224 238 241 258 196 221 231 245 302 280 66 49 35 24 27 31 37 42 40
127 204 169 229 247 209 167 168 173 169 165 181 186 181 209 166 175 185 155 177 192 199 216 204 209 227 230 295 321 245 270 311 283 30 70 56 43 35 43 44 43 43 39
228 166 203 224 215 252 148 175 181 176 169 182 189 190 186 179 165 205 192 189 207 177 223 201 252 238 313 267 271 283 290 287 329 337 78 72 53 34 34 31 27 27 26
245 258 173 202 244 220 192 204 190 186 180 189 178 191 181 191 173 192 198 216 186 223 175 244 243 259 235 232 243 337 346 318 316 333 123 116 107 70 37 25 25 26 36
255 230 195 189 214 231 219 214 195 196 182 194 182 181 199 199 170 192 199 212 218 236 242 220 215 257 243 260 38 331 306 322 327 322 328 142 137 120 92 51 27 26 23
210 224 226 198 199 222 224 213 205 191 190 197 187 174 201 205 159 220 198 204 207 211 251 236 272 210 248 251 249 13 274 292 269 322 317 326 154 142 117 95 64 44 26
247 207 216 235 200 206 215 221 206 205 205 196 191 175 193 194 174 214 190 200 204 210 197 217 213 238 275 285 262 239 270 4 306 310 273 330 342 329 138 103 105 103 64
233 227 215 220 226 209 206 215 225 207 218 195 194 176 185 187 180 196 198 193 179 216 205 231 215 270 266 257 266 261 274 281 272 288 346 303 290 325 333 128 146 162 128
222 216 218 227 229 208 204 210 220 239 210 199 192 182 174 183 184 207 194 193 184 222 206 220 242 193 311 333 313 312 300 302 253 259 284 280 315 337 305 348 336 171 181
226 206 219 219 232 223 205 207 209 209 214 197 194 179 174 180 175 198 191 188 208 229 241 155 202 222 275 332 294 256 213 200 237 250 256 292 314 345 314 326 311 349 329
236 204 218 220 222 235 211 206 211 208 211 196 187 172 184 176 175 186 203 181 196 186 183 177 211 321 151 358 312 307 283 170 210 198 247 330 10 327 333 341 333 316 324
228 218 212 222 212 215 239 198 212 221 230 180 185 180 186 177 176 181 207 190 159 251 159 133 203 315 317 87 357 342 314 347 320 96 151 317 45 301 326 338 322 341 341
231 226 204 221 210 222 216 221 209 214 202 203 187 181 173 181 175 190 181 143 165 200 106 129 107 62 317 217 195 59 12 313 349 8 359 307 264 341 16 353 344 340 337
225 235 223 206 215 226 213 211 217 209 205 205 191 160 175 180 178 170 175 150 138 126 99 126 117 83 84 6 30 6 32 292 135 11 321 338 334 334 338 356 357 325 343
227 225 229 202 212 219 210 219 217 212 214 225 181 156 175 176 168 168 151 128 127 113 120 97 91 83 88 86 97 53 37 316 11 23 337 328 332 334 342 8 358 8 348